CES9344 ZGDY-ZSPD

Flight info

Callsign CES9344
Flight time N/A
Altitude 26600
Route DYG W141 LIN A581 WHA R343 EKIMU
Aircraft A20N/M-SDE2E3FGILRWXY/LB2

Departure

Time N/A
Airport Zhangjiajie Hehua International Airport (ZGDY)

Arrival

Time 2026-05-04 07:20
Airport Shanghai Pudong International Airport (ZSPD)
Time Latitude Longitude Altitude Speed Heading
2026-05-04 05:38 29.10629 110.44082 739 ft 0 kts 76°
2026-05-04 05:42 29.10629 110.44083 739 ft 0 kts 76°
2026-05-04 05:42 29.10628 110.44079 740 ft 2 kts 76°
2026-05-04 05:42 29.10625 110.44063 741 ft 2 kts 76°
2026-05-04 05:43 29.10622 110.44045 743 ft 2 kts 98°
2026-05-04 05:43 29.10626 110.44029 744 ft 2 kts 120°
2026-05-04 05:43 29.10636 110.44016 745 ft 2 kts 143°
2026-05-04 05:45 29.10653 110.44009 745 ft 0 kts 166°
2026-05-04 05:47 29.10300 110.43626 776 ft 22 kts 255°
2026-05-04 05:47 29.10263 110.43454 776 ft 21 kts 256°
2026-05-04 05:47 29.10223 110.43277 768 ft 24 kts 256°
2026-05-04 05:48 29.10184 110.43103 760 ft 14 kts 255°
2026-05-04 05:48 29.10111 110.43059 758 ft 13 kts 165°
2026-05-04 05:48 29.10033 110.43106 760 ft 12 kts 109°
2026-05-04 05:48 29.10036 110.43192 762 ft 10 kts 74°
2026-05-04 05:49 29.10075 110.43366 766 ft 51 kts 76°
2026-05-04 05:49 29.10218 110.44015 748 ft 115 kts 75°
2026-05-04 05:49 29.10462 110.45108 758 ft 162 kts 76°
2026-05-04 05:49 29.10716 110.46318 1358 ft 154 kts 77°
2026-05-04 05:51 29.13067 110.56800 4121 ft 254 kts 76°
2026-05-04 05:51 29.13513 110.58819 4590 ft 270 kts 76°
2026-05-04 05:52 29.13980 110.60925 5305 ft 275 kts 76°
2026-05-04 05:52 29.14443 110.63049 6110 ft 277 kts 77°
2026-05-04 05:52 29.14873 110.65194 6865 ft 281 kts 77°
2026-05-04 05:52 29.15301 110.67348 7610 ft 285 kts 77°
2026-05-04 05:53 29.15745 110.69587 8387 ft 288 kts 77°
2026-05-04 05:54 29.19248 110.86697 11855 ft 368 kts 76°
2026-05-04 05:55 29.19854 110.89557 12434 ft 374 kts 75°
2026-05-04 05:55 29.20462 110.92444 13102 ft 377 kts 75°
2026-05-04 05:55 29.21079 110.95368 13753 ft 380 kts 75°
2026-05-04 05:55 29.21699 110.98311 14361 ft 385 kts 75°
2026-05-04 05:56 29.22329 111.01302 14947 ft 389 kts 76°
2026-05-04 05:56 29.22966 111.04335 15511 ft 393 kts 76°
2026-05-04 05:56 29.23603 111.07373 16053 ft 398 kts 76°
2026-05-04 05:56 29.24250 111.10461 16572 ft 403 kts 76°
2026-05-04 05:57 29.24906 111.13599 17088 ft 407 kts 76°
2026-05-04 05:57 29.25566 111.16762 17625 ft 411 kts 76°
2026-05-04 05:57 29.26228 111.19940 18123 ft 416 kts 76°
2026-05-04 05:57 29.26894 111.23145 18578 ft 421 kts 76°
2026-05-04 05:58 29.27576 111.26429 19045 ft 426 kts 76°
2026-05-04 05:58 29.28265 111.29749 19518 ft 431 kts 76°
2026-05-04 05:58 29.28956 111.33086 19944 ft 436 kts 76°
2026-05-04 05:58 29.29663 111.36506 20384 ft 441 kts 76°
2026-05-04 05:59 29.30366 111.39905 20833 ft 445 kts 76°
2026-05-04 05:59 29.31080 111.43364 21263 ft 450 kts 75°
2026-05-04 05:59 29.31804 111.46870 21685 ft 454 kts 75°
2026-05-04 05:59 29.32528 111.50389 22118 ft 458 kts 75°
2026-05-04 06:00 29.33264 111.53970 22515 ft 463 kts 75°
2026-05-04 06:00 29.33994 111.57524 22881 ft 468 kts 75°
2026-05-04 06:00 29.34732 111.61167 23295 ft 471 kts 73°
2026-05-04 06:00 29.35761 111.64730 23693 ft 473 kts 65°
2026-05-04 06:01 29.37201 111.68124 24062 ft 474 kts 57°
2026-05-04 06:01 29.38958 111.71348 24324 ft 479 kts 54°
2026-05-04 06:03 29.52036 111.94015 26623 ft 495 kts 53°
2026-05-04 06:03 29.53918 111.97317 26629 ft 495 kts 53°
2026-05-04 06:05 29.67048 112.20448 26635 ft 495 kts 53°
2026-05-04 06:05 29.70793 112.27072 26638 ft 494 kts 53°
2026-05-04 06:05 29.72667 112.30388 26625 ft 494 kts 53°
2026-05-04 06:06 29.74540 112.33707 26632 ft 494 kts 53°
2026-05-04 06:06 29.76410 112.37033 26627 ft 494 kts 53°
2026-05-04 06:06 29.78250 112.40313 26628 ft 494 kts 53°
2026-05-04 06:06 29.80129 112.43669 26632 ft 494 kts 53°
2026-05-04 06:07 29.81981 112.46980 26626 ft 494 kts 53°
2026-05-04 06:07 29.83835 112.50298 26627 ft 494 kts 53°
2026-05-04 06:07 29.85676 112.53593 26636 ft 494 kts 53°
2026-05-04 06:07 29.87523 112.56902 26628 ft 493 kts 53°
2026-05-04 06:08 29.89389 112.60251 26631 ft 493 kts 53°
2026-05-04 06:08 29.91246 112.63584 26635 ft 493 kts 53°
2026-05-04 06:08 29.93073 112.66865 26633 ft 493 kts 54°
2026-05-04 06:08 29.94938 112.70218 26628 ft 493 kts 54°
2026-05-04 06:09 29.96768 112.73508 26632 ft 493 kts 54°
2026-05-04 06:09 29.98643 112.76883 26626 ft 494 kts 54°
2026-05-04 06:11 30.11540 113.00188 26634 ft 493 kts 54°
2026-05-04 06:11 30.13377 113.03519 26640 ft 493 kts 54°
2026-05-04 06:13 30.26275 113.26804 26626 ft 492 kts 53°
2026-05-04 06:14 30.37439 113.46717 26624 ft 492 kts 53°
2026-05-04 06:14 30.39278 113.50015 26622 ft 491 kts 53°
2026-05-04 06:15 30.41129 113.53333 26629 ft 491 kts 53°
2026-05-04 06:15 30.42990 113.56673 26617 ft 491 kts 53°
2026-05-04 06:15 30.44837 113.59994 26621 ft 491 kts 53°
2026-05-04 06:15 30.46674 113.63295 26620 ft 491 kts 53°
2026-05-04 06:16 30.48521 113.66619 26618 ft 491 kts 53°
2026-05-04 06:16 30.50353 113.69920 26616 ft 491 kts 53°
2026-05-04 06:16 30.52216 113.73278 26629 ft 491 kts 53°
2026-05-04 06:16 30.54041 113.76573 26625 ft 491 kts 53°
2026-05-04 06:17 30.55898 113.79927 26617 ft 491 kts 53°
2026-05-04 06:17 30.57731 113.83240 26627 ft 491 kts 53°
2026-05-04 06:17 30.59581 113.86583 26616 ft 490 kts 54°
2026-05-04 06:17 30.61405 113.89886 26616 ft 490 kts 53°
2026-05-04 06:18 30.63236 113.93201 26619 ft 490 kts 53°
2026-05-04 06:18 30.65085 113.96549 26620 ft 490 kts 53°
2026-05-04 06:18 30.66903 113.99839 26622 ft 490 kts 53°
2026-05-04 06:20 30.79230 114.23498 26635 ft 492 kts 64°
2026-05-04 06:20 30.80519 114.27183 26638 ft 492 kts 66°
2026-05-04 06:21 30.85278 114.42064 26631 ft 491 kts 67°
2026-05-04 06:21 30.86464 114.45755 26625 ft 491 kts 66°
2026-05-04 06:22 30.87672 114.49486 26632 ft 491 kts 66°
2026-05-04 06:22 30.88870 114.53165 26628 ft 491 kts 66°
2026-05-04 06:25 31.04421 115.01373 26636 ft 489 kts 67°
2026-05-04 06:25 31.05608 115.05086 26645 ft 489 kts 67°
2026-05-04 06:26 31.06788 115.08783 26649 ft 489 kts 67°
2026-05-04 06:26 31.07979 115.12518 26652 ft 489 kts 67°
2026-05-04 06:26 31.09153 115.16202 26665 ft 489 kts 67°
2026-05-04 06:26 31.10335 115.19917 26669 ft 489 kts 67°
2026-05-04 06:27 31.15072 115.34770 26674 ft 488 kts 67°
2026-05-04 06:28 31.16270 115.38451 26680 ft 489 kts 66°
2026-05-04 06:28 31.17479 115.42176 26672 ft 488 kts 67°
2026-05-04 06:28 31.18667 115.45838 26681 ft 489 kts 66°
2026-05-04 06:28 31.19875 115.49575 26692 ft 489 kts 67°
2026-05-04 06:29 31.21068 115.53275 26696 ft 488 kts 67°
2026-05-04 06:29 31.22263 115.56979 26691 ft 488 kts 67°
2026-05-04 06:29 31.23455 115.60690 26705 ft 488 kts 67°
2026-05-04 06:29 31.24648 115.64404 26707 ft 488 kts 67°
2026-05-04 06:30 31.25831 115.68085 26710 ft 488 kts 68°
2026-05-04 06:30 31.27011 115.71767 26710 ft 488 kts 68°
2026-05-04 06:30 31.28198 115.75478 26719 ft 488 kts 68°
2026-05-04 06:30 31.29386 115.79191 26727 ft 488 kts 68°
2026-05-04 06:31 31.30578 115.82930 26720 ft 488 kts 68°
2026-05-04 06:31 31.31752 115.86617 26714 ft 488 kts 67°
2026-05-04 06:31 31.32943 115.90334 26706 ft 487 kts 67°
2026-05-04 06:31 31.34137 115.94012 26689 ft 488 kts 67°
2026-05-04 06:32 31.35336 115.97701 26689 ft 488 kts 67°
2026-05-04 06:33 31.43711 116.23645 26662 ft 488 kts 67°
2026-05-04 06:34 31.44890 116.27318 26661 ft 487 kts 67°
2026-05-04 06:34 31.46083 116.31042 26648 ft 487 kts 67°
2026-05-04 06:34 31.47266 116.34733 26652 ft 487 kts 67°
2026-05-04 06:34 31.48452 116.38442 26649 ft 487 kts 67°
2026-05-04 06:35 31.49640 116.42162 26633 ft 487 kts 67°
2026-05-04 06:36 31.57915 116.68168 26621 ft 488 kts 68°
2026-05-04 06:37 31.59103 116.71845 26628 ft 488 kts 67°
2026-05-04 06:37 31.60309 116.75568 26627 ft 488 kts 67°
2026-05-04 06:37 31.61507 116.79262 26624 ft 487 kts 67°
2026-05-04 06:37 31.62709 116.82975 26625 ft 487 kts 67°
2026-05-04 06:38 31.63905 116.86680 26620 ft 487 kts 67°
2026-05-04 06:38 31.65102 116.90396 26616 ft 488 kts 67°
2026-05-04 06:40 31.73285 117.16444 26630 ft 487 kts 68°
2026-05-04 06:40 31.74432 117.20165 26627 ft 487 kts 68°
2026-05-04 06:40 31.75585 117.23914 26625 ft 487 kts 68°
2026-05-04 06:40 31.76639 117.27724 26620 ft 488 kts 75°
2026-05-04 06:41 31.77201 117.31619 26621 ft 488 kts 85°
2026-05-04 06:41 31.77239 117.35582 26625 ft 487 kts 93°
2026-05-04 06:41 31.76986 117.39546 26621 ft 486 kts 95°
2026-05-04 06:41 31.76675 117.43511 26612 ft 486 kts 96°
2026-05-04 06:42 31.76365 117.47409 26621 ft 487 kts 96°
2026-05-04 06:42 31.76063 117.51382 26619 ft 487 kts 96°
2026-05-04 06:42 31.75774 117.55318 26622 ft 487 kts 95°
2026-05-04 06:44 31.73803 117.83010 26623 ft 488 kts 96°
2026-05-04 06:44 31.73517 117.86998 26627 ft 489 kts 96°
2026-05-04 06:44 31.73229 117.90991 26626 ft 488 kts 96°
2026-05-04 06:45 31.72943 117.94916 26629 ft 488 kts 96°
2026-05-04 06:45 31.72652 117.98893 26628 ft 489 kts 96°
2026-05-04 06:45 31.72364 118.02838 26628 ft 490 kts 96°
2026-05-04 06:45 31.72070 118.06826 26630 ft 491 kts 96°
2026-05-04 06:46 31.71775 118.10822 26633 ft 491 kts 96°
2026-05-04 06:46 31.71491 118.14819 26629 ft 492 kts 96°
2026-05-04 06:46 31.71215 118.18821 26632 ft 492 kts 96°
2026-05-04 06:46 31.70941 118.22783 26633 ft 492 kts 96°
2026-05-04 06:48 31.68959 118.50800 26632 ft 494 kts 96°
2026-05-04 06:48 31.68669 118.54823 26629 ft 494 kts 96°
2026-05-04 06:49 31.68376 118.58872 26635 ft 494 kts 96°
2026-05-04 06:50 31.66308 118.86957 26640 ft 496 kts 97°
2026-05-04 06:51 31.66006 118.90994 26645 ft 497 kts 97°
2026-05-04 06:51 31.65703 118.95007 26640 ft 498 kts 97°
2026-05-04 06:51 31.65401 118.99022 26634 ft 498 kts 97°
2026-05-04 06:51 31.65093 119.03107 26636 ft 499 kts 97°
2026-05-04 06:52 31.64828 119.07108 26641 ft 500 kts 96°
2026-05-04 06:52 31.64622 119.11195 26646 ft 500 kts 95°
2026-05-04 06:52 31.64437 119.15224 26635 ft 500 kts 95°
2026-05-04 06:52 31.64260 119.19333 26648 ft 500 kts 95°
2026-05-04 06:53 31.64090 119.23392 26636 ft 499 kts 95°
2026-05-04 06:53 31.63913 119.27435 26633 ft 499 kts 95°
2026-05-04 06:53 31.63733 119.31490 26636 ft 499 kts 95°
2026-05-04 06:53 31.63549 119.35564 26627 ft 500 kts 95°
2026-05-04 06:54 31.63357 119.39636 26635 ft 501 kts 95°
2026-05-04 06:54 31.63163 119.43668 26637 ft 501 kts 95°
2026-05-04 06:54 31.62970 119.47711 26634 ft 501 kts 95°
2026-05-04 06:54 31.62776 119.51781 26638 ft 501 kts 95°
2026-05-04 06:55 31.62580 119.55891 26636 ft 501 kts 95°
2026-05-04 06:55 31.62384 119.59927 26645 ft 501 kts 95°
2026-05-04 06:55 31.62186 119.63988 26637 ft 501 kts 95°
2026-05-04 06:55 31.61989 119.68056 26636 ft 501 kts 96°
2026-05-04 06:56 31.61798 119.72164 26636 ft 502 kts 95°
2026-05-04 06:57 31.60468 120.00749 26644 ft 503 kts 96°
2026-05-04 06:58 31.60274 120.04792 26651 ft 503 kts 96°
2026-05-04 06:58 31.60078 120.08891 26645 ft 503 kts 96°
2026-05-04 06:58 31.59880 120.12965 26655 ft 503 kts 96°
2026-05-04 06:58 31.59679 120.17081 26653 ft 503 kts 96°
2026-05-04 06:59 31.59478 120.21168 26646 ft 504 kts 96°
2026-05-04 06:59 31.59278 120.25226 26648 ft 504 kts 96°
2026-05-04 06:59 31.59009 120.29349 26285 ft 503 kts 99°
2026-05-04 06:59 31.58422 120.33331 25699 ft 497 kts 107°
2026-05-04 07:01 31.50750 120.59623 21239 ft 475 kts 110°
2026-05-04 07:01 31.49675 120.63254 20702 ft 470 kts 110°
2026-05-04 07:02 31.48616 120.66828 20164 ft 465 kts 110°
2026-05-04 07:02 31.47552 120.70414 19622 ft 459 kts 110°
2026-05-04 07:02 31.46520 120.73881 19094 ft 454 kts 110°
2026-05-04 07:02 31.45478 120.77375 18553 ft 449 kts 110°
2026-05-04 07:03 31.44460 120.80753 18020 ft 445 kts 110°
2026-05-04 07:03 31.43404 120.84167 17476 ft 440 kts 110°
2026-05-04 07:03 31.42374 120.87468 16937 ft 436 kts 110°
2026-05-04 07:03 31.41332 120.90800 16398 ft 431 kts 110°
2026-05-04 07:04 31.40314 120.94063 15862 ft 427 kts 110°
2026-05-04 07:04 31.39316 120.97299 15535 ft 416 kts 109°
2026-05-04 07:04 31.38367 121.00429 15514 ft 412 kts 109°
2026-05-04 07:04 31.37406 121.03603 15024 ft 412 kts 109°
2026-05-04 07:05 31.36457 121.06724 14499 ft 409 kts 109°
2026-05-04 07:05 31.35503 121.09853 13961 ft 406 kts 108°
2026-05-04 07:05 31.34567 121.12934 13455 ft 403 kts 108°
2026-05-04 07:05 31.33640 121.16020 12972 ft 399 kts 108°
2026-05-04 07:06 31.31820 121.22092 11946 ft 392 kts 107°
2026-05-04 07:06 31.30929 121.25061 11481 ft 389 kts 107°
2026-05-04 07:06 31.30034 121.28037 11019 ft 385 kts 107°
2026-05-04 07:07 31.29167 121.30910 10746 ft 374 kts 107°
2026-05-04 07:08 31.23766 121.48701 9467 ft 302 kts 106°
2026-05-04 07:09 31.23082 121.50956 9377 ft 290 kts 104°
2026-05-04 07:09 31.22747 121.53220 9255 ft 272 kts 81°
2026-05-04 07:09 31.23128 121.55305 8978 ft 263 kts 66°
2026-05-04 07:09 31.23723 121.57341 8678 ft 262 kts 65°
2026-05-04 07:10 31.24320 121.59315 8331 ft 260 kts 62°
2026-05-04 07:10 31.25335 121.60995 7987 ft 248 kts 31°
2026-05-04 07:12 31.36115 121.58611 5910 ft 230 kts 340°
2026-05-04 07:12 31.37642 121.58048 5682 ft 227 kts 345°
2026-05-04 07:12 31.39202 121.58150 5602 ft 231 kts 22°
2026-05-04 07:12 31.40420 121.59398 5393 ft 242 kts 58°
2026-05-04 07:13 31.40897 121.61282 5096 ft 245 kts 77°
2026-05-04 07:13 31.41202 121.63238 4817 ft 243 kts 76°
2026-05-04 07:13 31.41541 121.65147 4536 ft 241 kts 77°
2026-05-04 07:14 31.37589 121.70151 3587 ft 236 kts 167°
2026-05-04 07:14 31.35992 121.70646 3383 ft 235 kts 166°
2026-05-04 07:15 31.34432 121.71172 3235 ft 233 kts 165°
2026-05-04 07:15 31.32924 121.71719 3249 ft 220 kts 164°
2026-05-04 07:15 31.31492 121.72259 3207 ft 211 kts 163°
2026-05-04 07:15 31.30121 121.72782 3003 ft 203 kts 164°
2026-05-04 07:16 31.28788 121.73290 2709 ft 199 kts 163°
2026-05-04 07:16 31.27521 121.73774 2453 ft 183 kts 163°
2026-05-04 07:16 31.26359 121.74216 2196 ft 168 kts 163°
2026-05-04 07:16 31.25293 121.74621 1949 ft 154 kts 163°
2026-05-04 07:17 31.24322 121.74989 1736 ft 143 kts 163°
2026-05-04 07:17 31.23359 121.75352 1570 ft 143 kts 163°
2026-05-04 07:17 31.22406 121.75712 1402 ft 143 kts 162°
2026-05-04 07:17 31.21453 121.76072 1226 ft 143 kts 161°
2026-05-04 07:18 31.20498 121.76433 1045 ft 143 kts 161°
2026-05-04 07:18 31.19562 121.76786 856 ft 142 kts 160°
2026-05-04 07:18 31.18613 121.77136 667 ft 141 kts 160°
2026-05-04 07:18 31.17680 121.77486 484 ft 141 kts 159°
2026-05-04 07:19 31.16748 121.77849 313 ft 141 kts 159°
2026-05-04 07:19 31.15814 121.78203 139 ft 139 kts 159°
2026-05-04 07:19 31.14904 121.78548 34 ft 127 kts 158°
2026-05-04 07:19 31.14160 121.78838 24 ft 91 kts 162°
2026-05-04 07:20 31.13750 121.78989 25 ft 52 kts 159°
2026-05-04 07:20 31.13543 121.79125 24 ft 28 kts 135°
2026-05-04 07:20 31.13414 121.79266 23 ft 22 kts 135°
2026-05-04 07:20 31.13328 121.79369 21 ft 11 kts 122°
2026-05-04 07:22 31.13562 121.80117 19 ft 16 kts 356°
2026-05-04 07:22 31.13639 121.80098 21 ft 6 kts 18°
2026-05-04 07:23 31.13656 121.80149 21 ft 7 kts 82°
2026-05-04 07:23 31.13664 121.80187 21 ft 3 kts 72°
2026-05-04 07:23 31.13670 121.80209 21 ft 2 kts 73°
2026-05-04 07:23 31.13672 121.80218 21 ft 0 kts 73°